[[{"header":{"parameterUnit":"m.s-1","parameterCategory":1,"la1":30.2991,"la2":30.254,"lo1":-89.0895,"lo2":-89.0444,"dy":0.0017,"dx":0.0017,"nx":28,"ny":28,"refTime":"2025-01-07T03:00:00:Z","depth":0,"parameterNumber":2,"parameterNumberName":"U-component_of_WINDS"},"data":[0,0,0,0,0,0,0,0,0,0,0,0,0,0,0,0,0,0,0,0,0,0,0,0,0,0,0,0,0,0,0,0,0,0,0,0,0,0,0,0,0,0,0,0,0,0,0,0,0,0,0,0,0,0,0,0,0,0,-0.8786,-0.8787,0,-0.8826,-0.8827,-0.8827,-0.8788,-0.8786,-0.8785,-0.8783,-0.8827,-0.883,-0.8833,0,0,0,0,0,0,0,0,0,0,0,0,0,-0.8679,-0.8681,-0.8786,-0.8787,-0.8787,-0.8826,-0.8827,-0.8827,-0.8788,-0.8786,-0.8785,-0.8783,-0.8827,-0.883,-0.8833,0,0,0,0,0,0,0,0,0,0,0,0,0,-0.8723,-0.8682,-0.8786,-0.8772,-0.8771,-0.8826,-0.8827,-0.8827,-0.8789,-0.8786,-0.8784,-0.8782,-0.8826,-0.8829,-0.8833,-0.8904,0,0,-0.8845,-0.8847,0,0,0,0,0,0,0,0,-0.872,-0.8727,-0.8774,-0.8773,-0.8773,-0.88,-0.8805,-0.8853,-0.8789,-0.8782,-0.8783,-0.8781,-0.882,-0.8824,-0.8837,-0.8906,-0.8908,-0.8846,-0.8848,-0.885,-0.8851,0,0,0,0,0,0,0,-0.8717,-0.8725,-0.8802,-0.8775,-0.8774,-0.8765,-0.8769,-0.8814,-0.8814,-0.8783,-0.878,-0.8785,-0.8819,-0.8834,-0.8838,-0.8909,-0.8845,-0.8849,-0.8851,-0.8853,-0.9038,-0.9041,0,0,0,0,0,0,-0.8715,-0.8722,-0.8801,-0.8803,-0.874,-0.8769,-0.8773,-0.8793,-0.8813,-0.8814,-0.8787,-0.8783,-0.8828,-0.8833,-0.8839,-0.8925,-0.885,-0.8853,-0.8856,-0.9036,-0.9039,-0.9042,0,0,0,0,0,0,-0.8713,-0.8723,-0.8799,-0.8762,-0.8771,-0.8773,-0.8796,-0.8795,-0.8809,-0.8816,-0.8817,-0.8801,-0.8826,-0.8834,-0.8888,-0.8926,-0.8855,-0.8859,-0.9033,-0.9037,-0.904,-0.9095,0,0,0,0,0,0,-0.871,-0.8722,-0.8749,-0.8763,-0.8773,-0.8847,-0.8799,-0.8798,-0.8816,-0.8811,-0.883,-0.8831,-0.8825,-0.8883,-0.8892,-0.893,-0.8862,-0.9029,-0.9034,-0.9039,-0.909,-0.91,-0.9109,0,0,0,0,0,-0.8707,-0.8763,-0.875,-0.876,-0.8806,-0.8849,-0.8855,-0.8847,-0.8819,-0.8846,-0.8851,-0.883,-0.8919,-0.8888,-0.8899,-0.8938,-0.9027,-0.9033,-0.9039,-0.9086,-0.9098,-0.9109,0,0,0,0,0,0,-0.8755,-0.8765,-0.8751,-0.8813,-0.883,-0.8842,-0.8877,-0.886,-0.8886,-0.8881,-0.887,-0.8874,-0.8932,-0.894,-0.8906,-0.9008,-0.8969,-0.8977,-0.9001,-0.9013,-0.9022,-0.902,-0.8865,0,0,0,0,0,-0.8772,-0.8805,-0.8812,-0.8867,-0.8876,-0.8875,-0.8893,-0.8885,-0.8903,-0.891,-0.8919,-0.8938,-0.897,-0.8991,-0.9021,-0.909,-0.9094,-0.9122,-0.9132,-0.9139,-0.9147,-0.9185,-0.9198,-0.9061,-0.906,-0.906,0,0,-0.8809,-0.8819,-0.8841,-0.8877,-0.8889,-0.8925,-0.8881,-0.8921,-0.8947,-0.8916,-0.8969,-0.8975,-0.8995,-0.9057,-0.9085,-0.9066,-0.9186,-0.9147,-0.9153,-0.9157,-0.9192,-0.9206,-0.9217,-0.9064,-0.9064,-0.9063,0,0,-0.8896,-0.8906,-0.8953,-0.8966,-0.8984,-0.8983,-0.8994,-0.9008,-0.9011,-0.9063,-0.9041,-0.9072,-0.9127,-0.9143,-0.9158,-0.9249,-0.9232,-0.9259,-0.931,-0.9347,-0.9358,-0.9368,-0.9402,-0.9414,-0.9267,-0.9267,-0.9267,0,-0.8941,-0.8992,-0.8979,-0.902,-0.9037,-0.9009,-0.9057,-0.9071,-0.9099,-0.9112,-0.9089,-0.9158,-0.9169,-0.9235,-0.9257,-0.927,-0.9283,-0.9258,-0.9357,-0.9367,-0.9376,-0.9408,-0.9421,-0.927,-0.927,-0.9269,-0.9269,0,-0.9047,-0.9083,-0.9119,-0.9145,-0.9166,-0.9211,-0.9205,-0.9228,-0.9217,-0.9218,-0.9271,-0.9284,-0.9316,-0.933,-0.9321,-0.9395,-0.9383,-0.9359,-0.932,-0.9392,-0.9423,-0.9435,-0.9275,-0.9274,-0.9273,-0.9272,0,0,-0.9167,-0.9185,-0.9199,-0.9211,-0.9228,-0.9257,-0.9299,-0.933,-0.935,-0.937,-0.9407,-0.9454,-0.9432,-0.9449,-0.944,-0.9472,-0.9545,-0.9445,-0.9445,-0.9465,-0.963,-0.9649,-0.9664,-0.9533,-0.9535,-0.9537,-0.9628,0,-0.9256,-0.933,-0.9319,-0.9391,-0.9425,-0.9398,-0.9435,-0.9451,-0.9452,-0.9482,-0.9484,-0.9518,-0.9485,-0.9496,-0.9526,-0.953,-0.9579,-0.9523,-0.9569,-0.9571,-0.9567,-0.9679,-0.97,-0.9786,-0.964,-0.9642,-0.9643,0,-0.937,-0.9393,-0.9468,-0.948,-0.9494,-0.9528,-0.9555,-0.9583,-0.96,-0.9599,-0.9617,-0.9603,-0.9647,-0.9605,-0.9666,-0.9628,-0.9646,-0.965,-0.9653,-0.966,-0.9613,-0.969,-0.9813,-0.9827,-0.9662,-0.966,-0.9659,0,-0.9452,-0.9502,-0.9553,-0.9564,-0.9579,-0.9604,-0.9612,-0.9626,-0.9645,-0.9669,-0.9681,-0.971,-0.9726,-0.9749,-0.9743,-0.9712,-0.9806,-0.9763,-0.9807,-0.9808,-0.9831,-0.983,-0.996,-0.9838,-0.9838,-0.9837,-0.9837,0,-0.9554,-0.9602,-0.9591,-0.9623,-0.9675,-0.9662,-0.9714,-0.9719,-0.9732,-0.9765,-0.9742,-0.9774,-0.9763,-0.9794,-0.9789,-0.9841,-0.9848,-0.9849,-0.9848,-0.9853,-0.9853,-0.9866,-0.9861,-0.9841,-0.984,-0.9839,-0.9839,0,-0.9657,-0.9651,-0.9706,-0.9715,-0.9718,-0.9757,-0.9765,-0.9796,-0.9794,-0.9837,-0.9846,-0.9845,-0.988,-0.9875,-0.9915,-0.9912,-0.9977,-0.9967,-0.9971,-0.997,-1.0016,-1.0012,-1.0161,-1.0181,-1.0044,-1.0045,-1.0046,0,-0.9723,-0.9759,-0.9772,-0.9792,-0.9801,-0.9833,-0.9852,-0.984,-0.9861,-0.9882,-0.991,-0.9943,-0.9969,-1.0027,-1.0031,-1.0061,-1.0053,-1.0103,-1.0058,-1.0061,-1.0056,-1.0055,-1.0059,-1.0113,-1.0114,-1.0116,-1.0117,0,-0.9842,-0.9837,-0.9865,-0.9892,-0.9915,-0.9935,-0.9954,-0.9972,-0.9961,-0.9986,-1.0021,-1.0041,-1.008,-1.0114,-1.0142,-1.0151,-1.0133,-1.013,-1.0143,-1.0149,-1.0151,-1.0153,-0.9998,-1.0128,-1.0127,-1.0126,-1.0125,-1.0125,-0.9931,-0.9961,-0.9975,-1.0007,-1.0019,-1.0036,-1.0065,-1.0067,-1.0096,-1.0127,-1.0118,-1.0158,-1.0174,-1.021,-1.0221,-1.0253,-1.0235,-1.0252,-1.0257,-1.0262,-1.0269,-1.0144,-1.0258,-1.0257,-1.0257,-1.0257,-1.0257,0,-1.0051,-1.0057,-1.0086,-1.0112,-1.0137,-1.0116,-1.0135,-1.0158,-1.0193,-1.0209,-1.0234,-1.0275,-1.0307,-1.0312,-1.0343,-1.0367,-1.036,-1.0376,-1.0376,-1.0378,-1.0282,-1.0269,-1.0382,-1.0382,-1.0382,-1.0382,-1.0382,-1.0382,-1.0116,-1.0167,-1.0164,-1.0221,-1.0228,-1.0266,-1.0279,-1.0296,-1.0308,-1.0354,-1.0381,-1.0383,-1.0395,-1.0426,-1.0454,-1.0455,-1.0468,-1.0488,-1.0486,-1.0397,-1.0385,-1.0373,-1.0361,-1.0491,-1.0491,-1.0579,-1.058,-1.0581]},{"header":{"parameterUnit":"m.s-1","parameterCategory":1,"la1":30.2991,"la2":30.254,"lo1":-89.0895,"lo2":-89.0444,"dy":0.0017,"dx":0.0017,"nx":28,"ny":28,"refTime":"2025-01-07T03:00:00:Z","depth":0,"parameterNumber":3,"parameterNumberName":"V-component_of_WINDS"},"data":[0,0,0,0,0,0,0,0,0,0,0,0,0,0,0,0,0,0,0,0,0,0,0,0,0,0,0,0,0,0,0,0,0,0,0,0,0,0,0,0,0,0,0,0,0,0,0,0,0,0,0,0,0,0,0,0,0,0,-6.064,-6.0641,0,-6.0723,-6.0724,-6.0725,-6.0663,-6.066,-6.0657,-6.0655,-6.0735,-6.074,-6.0744,0,0,0,0,0,0,0,0,0,0,0,0,0,-6.0424,-6.0428,-6.064,-6.0641,-6.0642,-6.0723,-6.0724,-6.0725,-6.0663,-6.066,-6.0657,-6.0653,-6.0734,-6.0739,-6.0745,0,0,0,0,0,0,0,0,0,0,0,0,0,-6.0513,-6.043,-6.064,-6.0621,-6.062,-6.0723,-6.0724,-6.0725,-6.0664,-6.066,-6.0656,-6.0652,-6.0732,-6.0739,-6.0745,-6.0869,0,0,-6.0767,-6.077,0,0,0,0,0,0,0,0,-6.0508,-6.0521,-6.0623,-6.0623,-6.0622,-6.0678,-6.0677,-6.0774,-6.0665,-6.0647,-6.0655,-6.065,-6.0719,-6.0727,-6.0751,-6.0873,-6.0877,-6.0767,-6.0772,-6.0775,-6.0777,0,0,0,0,0,0,0,-6.0502,-6.0517,-6.0673,-6.0624,-6.0624,-6.0607,-6.0615,-6.0695,-6.0705,-6.0648,-6.0644,-6.0655,-6.0718,-6.0745,-6.0753,-6.0878,-6.0767,-6.0773,-6.0778,-6.078,-6.1106,-6.111,0,0,0,0,0,0,-6.0498,-6.0513,-6.067,-6.0675,-6.0554,-6.0614,-6.0623,-6.0664,-6.0704,-6.0706,-6.0658,-6.0652,-6.0735,-6.0745,-6.0755,-6.0903,-6.0775,-6.0781,-6.0785,-6.1101,-6.1106,-6.1111,0,0,0,0,0,0,-6.0494,-6.0513,-6.0667,-6.0593,-6.0611,-6.0622,-6.0669,-6.0668,-6.0695,-6.0711,-6.0712,-6.0684,-6.0732,-6.0745,-6.0842,-6.0905,-6.0784,-6.0791,-6.1096,-6.1103,-6.1109,-6.1201,0,0,0,0,0,0,-6.0488,-6.0512,-6.056,-6.0595,-6.0615,-6.0754,-6.0673,-6.0673,-6.0707,-6.07,-6.0736,-6.0738,-6.073,-6.0832,-6.0849,-6.0913,-6.0796,-6.109,-6.1099,-6.1107,-6.1192,-6.121,-6.1225,0,0,0,0,0,-6.0481,-6.0582,-6.0563,-6.0582,-6.0676,-6.0758,-6.0769,-6.0759,-6.0713,-6.0761,-6.0771,-6.0737,-6.0896,-6.0842,-6.0861,-6.0928,-6.1086,-6.1096,-6.1106,-6.1185,-6.1206,-6.1224,0,0,0,0,0,0,-6.0553,-6.0586,-6.0565,-6.0681,-6.0717,-6.0747,-6.0807,-6.0782,-6.0831,-6.0822,-6.0806,-6.0815,-6.0916,-6.0931,-6.0871,-6.105,-6.0983,-6.0997,-6.1037,-6.1057,-6.1073,-6.1068,-6.0802,0,0,0,0,0,-6.0583,-6.0647,-6.0672,-6.0771,-6.0791,-6.0796,-6.0831,-6.0821,-6.0857,-6.0871,-6.0889,-6.0924,-6.0982,-6.102,-6.1074,-6.1194,-6.12,-6.1249,-6.1265,-6.1278,-6.1291,-6.1355,-6.1377,-6.1144,-6.1144,-6.1144,0,0,-6.0644,-6.067,-6.0712,-6.0787,-6.0813,-6.088,-6.0809,-6.0882,-6.0931,-6.0881,-6.0974,-6.0989,-6.1026,-6.1135,-6.1184,-6.1151,-6.1357,-6.1291,-6.1302,-6.1307,-6.1368,-6.139,-6.141,-6.1151,-6.115,-6.1149,0,0,-6.079,-6.0817,-6.0903,-6.0931,-6.0973,-6.0976,-6.0997,-6.1031,-6.1039,-6.1132,-6.1097,-6.1153,-6.1253,-6.1282,-6.1309,-6.1467,-6.1436,-6.1484,-6.157,-6.1633,-6.1651,-6.1668,-6.1724,-6.1744,-6.1497,-6.1497,-6.1497,0,-6.0861,-6.0961,-6.095,-6.1026,-6.106,-6.102,-6.1106,-6.1134,-6.1191,-6.1214,-6.1177,-6.1302,-6.1324,-6.1439,-6.1478,-6.1502,-6.1524,-6.1481,-6.165,-6.1666,-6.1681,-6.1735,-6.1756,-6.1503,-6.1502,-6.1501,-6.1501,0,-6.1046,-6.1116,-6.118,-6.1238,-6.1279,-6.1359,-6.1359,-6.1402,-6.1387,-6.1394,-6.1489,-6.1515,-6.1574,-6.16,-6.1586,-6.1713,-6.1691,-6.1652,-6.1585,-6.1709,-6.1759,-6.178,-6.1511,-6.1509,-6.1507,-6.1506,0,0,-6.124,-6.1292,-6.1315,-6.1341,-6.1385,-6.1438,-6.1516,-6.1575,-6.1612,-6.1652,-6.1717,-6.1803,-6.1767,-6.1799,-6.1787,-6.1843,-6.1966,-6.1797,-6.1797,-6.1828,-6.2108,-6.2137,-6.2161,-6.1946,-6.195,-6.1953,-6.2105,0,-6.1389,-6.1528,-6.152,-6.165,-6.1714,-6.1677,-6.1745,-6.1778,-6.1786,-6.184,-6.1848,-6.191,-6.1858,-6.1877,-6.193,-6.194,-6.2022,-6.1929,-6.2005,-6.2008,-6.1998,-6.2187,-6.2219,-6.2361,-6.2124,-6.2127,-6.213,0,-6.1581,-6.163,-6.1767,-6.1802,-6.1828,-6.189,-6.1943,-6.1996,-6.2032,-6.2034,-6.207,-6.205,-6.2127,-6.2058,-6.2165,-6.2102,-6.2132,-6.2142,-6.2147,-6.2154,-6.2077,-6.22,-6.2406,-6.2428,-6.216,-6.2158,-6.2156,0,-6.171,-6.181,-6.1905,-6.1928,-6.197,-6.2015,-6.2034,-6.2067,-6.2103,-6.2149,-6.2172,-6.2226,-6.2256,-6.2297,-6.2291,-6.2241,-6.24,-6.233,-6.2403,-6.2404,-6.2439,-6.2437,-6.2653,-6.2458,-6.2458,-6.2457,-6.2457,0,-6.1878,-6.1963,-6.1964,-6.2022,-6.2116,-6.2105,-6.2198,-6.2212,-6.2242,-6.2301,-6.2271,-6.2327,-6.2316,-6.2372,-6.2367,-6.2457,-6.247,-6.2473,-6.2471,-6.2476,-6.2476,-6.2496,-6.2487,-6.2463,-6.2462,-6.246,-6.2459,0,-6.2038,-6.2042,-6.2143,-6.2175,-6.2185,-6.2253,-6.2279,-6.2334,-6.2339,-6.2415,-6.2432,-6.244,-6.2504,-6.2503,-6.2575,-6.2572,-6.2682,-6.2668,-6.267,-6.2667,-6.2741,-6.2734,-6.2978,-6.301,-6.2794,-6.2796,-6.2797,0,-6.2145,-6.221,-6.2249,-6.2288,-6.2311,-6.2373,-6.241,-6.2401,-6.2441,-6.2488,-6.2537,-6.2598,-6.2647,-6.275,-6.2762,-6.2817,-6.2804,-6.2886,-6.2812,-6.2816,-6.2806,-6.2803,-6.2809,-6.2901,-6.2903,-6.2905,-6.2907,0,-6.2335,-6.2333,-6.2389,-6.2446,-6.2492,-6.2535,-6.2575,-6.2608,-6.2604,-6.2649,-6.2716,-6.2754,-6.2828,-6.2889,-6.2942,-6.2959,-6.2933,-6.293,-6.295,-6.2956,-6.2955,-6.2957,-6.271,-6.2924,-6.2923,-6.2921,-6.292,-6.292,-6.2472,-6.2528,-6.2565,-6.2628,-6.2658,-6.2696,-6.2749,-6.2762,-6.2817,-6.2879,-6.2869,-6.2943,-6.2977,-6.3045,-6.3068,-6.3125,-6.3095,-6.3124,-6.3131,-6.3139,-6.3148,-6.2946,-6.3134,-6.3133,-6.3133,-6.3132,-6.3132,0,-6.266,-6.2682,-6.2741,-6.2799,-6.2848,-6.282,-6.2862,-6.2905,-6.2971,-6.3006,-6.3055,-6.3131,-6.319,-6.3206,-6.3263,-6.3305,-6.3294,-6.332,-6.3317,-6.3322,-6.317,-6.3148,-6.3328,-6.3328,-6.3328,-6.3328,-6.3328,-6.3328,-6.2764,-6.2858,-6.2862,-6.297,-6.299,-6.3064,-6.3091,-6.3126,-6.3154,-6.324,-6.329,-6.33,-6.3328,-6.3386,-6.3439,-6.3442,-6.3464,-6.3496,-6.3494,-6.3352,-6.3332,-6.3314,-6.3292,-6.3501,-6.3501,-6.3641,-6.3642,-6.3643]}]]